Main page
METAR-TAF:

METAR-TAF

Airports :

Araçatuba Airport

Araçatuba, São Paulo, Brazil

latitude: 21-08-39S, longitude: 050-25-35W, elevation: 415 m

Current weather observation

The report was made 5 hours and 1 minutes ago, at 18:00 UTC
Wind 8 kt from the East/Northeast
Temperature 34°C
Humidity 34%
Pressure 1013 hPa
Visibility 10 km or more
Scattered clouds at a height of 4000 ft

METAR: SBAU 141800Z 06008KT 9999 SCT040 34/16 Q1013

Time: 21:01 (23:01 UTC)


TAF: missing

Weather observations and forecasts of more than 4000 airports (METAR and TAF reports).

The available stations are represented by yellow and red dots on the map.

Hover mouse over dot to see the name of the station.

Then click to see weather observations and forecasts.

To change the map : click on the green buttons with a black cross to zoom in, on the green button with a dash to zoom out, or on the green arrows for adjacent maps.


METAR-TAF: